Hourly Data Report for November 04, 2012

BAGOTVILLE A
QUEBEC

48°20'00.000" N
71°00'00.000" W
159.10 m
7060400
71727
YBG

Download Data

Hourly Data (November 2012)
Hourly Data Report for November 4, 2012
TIME
LST
Temp Definition
°C
Dew Point Definition
°C
Rel Hum Definition
%
Precip. Amount Definition
mm

Wind Dir Definition
10's deg

Wind Spd Definition
km/h
Visibility Definition
km
Stn Press Definition
kPa
Hmdx Definition


Wind Chill Definition


Weather Definition


00:00 3.0 -0.1 80   29 24 24.1 98.86     Cloudy
01:00 2.8 -3.5 63   29 26 24.1 98.90     Cloudy
02:00 2.7 -1.3 75   29 22 24.1 98.93     Cloudy
03:00 2.4 -1.6 75   29 26 24.1 98.94     Cloudy
04:00 2.0 -1.5 78   29 24 16.1 98.98     Snow Showers
05:00 1.9 -2.2 74   30 26 24.1 99.03     Cloudy
06:00 1.3 -2.0 79   29 24 24.1 99.07     Cloudy
07:00 1.0 -2.4 78   30 32 32.2 99.18     Cloudy
08:00 0.8 -1.6 84   31 20 32.2 99.25     Cloudy
09:00 0.6 -1.3 87   30 26 32.2 99.26     Cloudy
10:00 0.9 -3.7 71   31 24 32.2 99.29     Cloudy
11:00 0.5 -4.0 72   30 26 32.2 99.29     Cloudy
12:00 0.5 -4.0 72   30 22 32.2 99.30     Cloudy
13:00 0.6 -5.4 64   30 24 40.2 99.29     Cloudy
14:00 0.9 -4.3 68   31 20 40.2 99.30     Cloudy
15:00 0.9 -6.0 60   31 20 40.2 99.35     Cloudy
16:00 0.6 -6.4 59   30 24 40.2 99.39     Cloudy
17:00 0.6 -6.8 58   30 19 24.1 99.43     Cloudy
18:00 0.4 -6.7 59   31 17 24.1 99.47     Cloudy
19:00 0.0 -5.6 66   30 20 24.1 99.51   -5 Cloudy
20:00 -0.1 -6.4 62   31 17 24.1 99.53   -5 Snow Showers
21:00 -0.5 -7.0 61   31 15 24.1 99.54   -5 Snow Showers
22:00 -0.7 -8.0 58   32 19 19.3 99.53   -6 Snow
23:00 -0.9 -7.6 60   31 15 24.1 99.51   -6 Cloudy

Notes on Data Quality.

Legend

  • E = Estimated
  • M = Missing
  • NA = Not Available*
  • [empty] = Indicates an unobserved value
Date modified: